Date,TemperatureHighF,TemperatureAvgF,TemperatureLowF,DewpointHighF,DewpointAvgF,DewpointLowF,HumidityHigh,HumidityAvg,HumidityLow,PressureMaxIn,PressureMinIn,WindSpeedMaxMPH,WindSpeedAvgMPH,GustSpeedMaxMPH,PrecipitationSumIn
2013-2-1,29.5,17.0,2.2,23.0,10.4,-3.7,83,75,70,30.51,30.16,25,2,25,0.00
2013-2-2,51.0,35.6,26.7,39.1,28.4,22.7,90,76,55,30.25,30.09,19,2,19,0.00
2013-2-3,44.7,36.1,26.9,33.0,27.7,21.9,85,72,51,30.26,29.83,22,3,22,0.00
2013-2-4,38.0,28.7,24.1,30.6,23.6,19.4,89,81,71,30.06,29.82,19,2,19,0.00
2013-2-5,53.2,39.7,27.2,34.8,28.1,24.4,89,66,39,30.09,29.90,20,2,20,0.00
2013-2-6,54.5,42.7,34.4,45.2,35.1,26.7,90,75,65,30.08,29.83,21,3,21,0.00
2013-2-7,42.6,34.9,27.3,39.9,29.6,23.3,92,81,71,30.29,29.89,20,2,20,0.00
2013-2-8,39.7,30.5,25.1,30.7,25.5,22.0,89,82,68,30.37,30.15,18,4,18,0.00
2013-2-9,52.3,39.1,28.0,40.1,32.9,24.6,90,79,62,30.16,29.61,27,7,27,0.02
2013-2-10,43.0,36.4,31.4,40.7,31.5,22.5,94,83,69,29.90,29.25,36,10,36,0.05
2013-2-11,38.9,31.4,24.8,26.3,22.2,19.4,83,69,53,30.20,29.90,36,7,36,0.00
2013-2-12,47.9,33.2,20.5,27.6,21.6,17.0,88,65,34,30.20,29.96,19,1,19,0.00
2013-2-13,53.1,38.3,24.7,33.5,27.0,20.0,86,66,40,29.96,29.77,20,2,20,0.00
2013-2-14,43.4,35.8,20.1,32.3,26.0,14.0,85,69,43,30.34,29.86,27,6,28,0.00
2013-2-15,33.9,23.7,16.9,25.5,17.7,12.7,89,78,57,30.44,30.33,25,1,25,0.00
2013-2-16,39.2,25.8,11.6,25.3,18.2,8.2,87,74,54,30.42,30.04,20,1,20,0.00
2013-2-17,60.7,40.5,23.4,35.4,27.8,18.4,85,63,36,30.04,29.55,21,3,21,0.00
2013-2-18,43.8,33.2,24.3,33.2,24.1,15.9,83,69,51,30.13,29.55,31,4,31,0.00
2013-2-19,28.4,19.2,11.4,20.2,6.1,0.5,80,58,32,30.44,30.13,29,4,29,0.00
2013-2-20,22.7,14.5,5.2,13.1,4.7,-1.0,77,65,52,30.45,30.26,23,4,23,0.00
2013-2-21,22.4,20.3,19.0,18.1,13.2,7.4,89,75,52,30.31,29.93,21,5,21,0.00
2013-2-22,21.0,16.7,7.5,18.8,13.5,3.4,98,87,84,30.13,29.93,18,2,18,0.01
2013-2-23,33.3,18.6,2.5,29.0,14.5,-1.5,95,84,79,30.10,29.91,14,1,14,0.02
2013-2-24,41.5,30.1,21.5,31.7,25.0,18.5,89,82,59,30.12,29.95,10,1,10,0.00
2013-2-25,36.5,30.0,25.5,28.7,24.8,22.2,89,81,69,30.12,29.94,16,3,16,0.00
2013-2-26,29.0,26.0,22.3,24.8,22.9,20.0,91,88,82,30.02,29.88,17,3,17,0.00
2013-2-27,38.7,30.3,22.7,27.9,23.8,19.9,91,77,59,30.18,29.99,26,7,26,0.00
2013-2-28,32.4,28.6,25.7,26.6,23.1,20.4,85,80,74,30.30,30.17,21,3,21,0.00